Toluca Jose Maria, Mexico

2:19 AM CDT on September 21, 2017 (GMT -0500)
Lic Adolfo Lopez Mateos International

Weather History for MMTO - September, 2012

Change the Weather History Date:

Tuesday, September 18, 2012

  Actual Average Record
Temperature  
Mean Temperature 60 °F -  
Max Temperature 68 °F 68 °F 86 °F (2013)
Min Temperature 51 °F 47 °F 44 °F (1996)
Degree Days  
Heating Degree Days 6    
Growing Degree Days 10 (Base 50)    
Moisture  
Dew Point 47 °F    
Average Humidity 68    
Maximum Humidity 94    
Minimum Humidity 46    
Precipitation  
Precipitation 0.00 in - - ()
Sea Level Pressure  
Sea Level Pressure 30.18 in    
Wind  
Wind Speed 3 mph ()    
Max Wind Speed 13 mph    
Max Gust Speed -    
Visibility 5.4 miles    
Events Rain    
Averages and records for this station are not official NWS values.
T = Trace of Precipitation, MM = Missing Value Source: Averaged Metar Reports

Daily Weather History Graph

Daily Weather History Graph

Search for Another Location

Airport or City:

Trip Planner

Search our weather history database for the weather conditions in past years. The results will help you decide how hot, cold, wet, or windy it might be!

Date:

Astronomy

Sep. 18, 2012 Rise Set
Actual Time 7:26 AM CDT 7:37 PM CDT
Civil Twilight 7:04 AM CDT 7:59 PM CDT
Nautical Twilight 6:39 AM CDT 8:25 PM CDT
Astronomical Twilight 6:13 AM CDT 8:50 PM CDT
Moon 9:55 AM CDT (9/18) 9:38 PM CDT (9/18)
Length of Visible Light 12h 54m
Length of Day
12h 11m
Waxing Crescent, 9% of the Moon is Illuminated
Sep 18
Waxing Crescent
Sep 22
First Quarter
Sep 29
Full
Oct 8
Last Quarter
Oct 15
New

Hourly Weather History & Observations

Time (CDT) Temp. Dew Point Humidity Pressure Visibility Wind Dir Wind Speed Gust Speed Precip Events Conditions
12:48 AM 53.6 °F 50.0 °F 88% 29.79 in 5.0 mi Calm Calm - N/A   Overcast
1:41 AM 53.6 °F 50.0 °F 88% 30.37 in 4.0 mi Calm Calm - N/A Rain Light Rain
2:45 AM 53.6 °F 50.0 °F 88% 30.36 in 4.0 mi Calm Calm - N/A   Overcast
3:46 AM 53.6 °F 50.0 °F 88% 29.75 in 4.0 mi Calm Calm - N/A   Overcast
4:41 AM 53.6 °F 50.0 °F 88% 30.34 in 4.0 mi Calm Calm - N/A   Overcast
5:48 AM 53.6 °F 50.0 °F 88% 30.33 in 3.0 mi Calm Calm - N/A   Overcast
6:47 AM 51.8 °F 50.0 °F 94% 29.86 in 4.0 mi Calm Calm - N/A   Overcast
7:45 AM 53.6 °F 50.0 °F 88% 30.37 in 2.0 mi Calm Calm - N/A   Overcast
8:46 AM 53.6 °F 50.0 °F 88% 30.38 in 2.0 mi Calm Calm - N/A   Overcast
9:43 AM 55.4 °F 50.0 °F 82% 29.88 in 3.0 mi Calm Calm - N/A   Overcast
10:46 AM 60.8 °F 42.8 °F 52% 30.42 in 7.0 mi ENE 6.9 mph - N/A   Mostly Cloudy
11:46 AM 62.6 °F 44.6 °F 52% 30.42 in 7.0 mi ENE 9.2 mph - N/A   Mostly Cloudy
12:43 PM 64.4 °F 44.6 °F 49% 29.81 in 7.0 mi NNE 3.5 mph - N/A   Mostly Cloudy
1:47 PM 66.2 °F 46.4 °F 49% 30.38 in 7.0 mi North 4.6 mph - N/A   Mostly Cloudy
2:44 PM 66.2 °F 46.4 °F 49% 30.36 in 5.0 mi ESE 2.3 mph - N/A   Mostly Cloudy
3:42 PM 68.0 °F 46.4 °F 46% 29.69 in 5.0 mi North 4.6 mph - N/A   Mostly Cloudy
4:44 PM 68.0 °F 46.4 °F 46% 30.30 in 7.0 mi ESE 4.6 mph - N/A   Mostly Cloudy
5:41 PM 66.2 °F 46.4 °F 49% 30.29 in 7.0 mi ENE 6.9 mph - N/A   Mostly Cloudy
6:44 PM 64.4 °F 44.6 °F 49% 29.74 in 7.0 mi NE 8.1 mph - N/A   Mostly Cloudy
7:45 PM 60.8 °F 46.4 °F 59% 30.33 in 7.0 mi East 9.2 mph - N/A   Mostly Cloudy
8:42 PM 59.0 °F 46.4 °F 63% 30.35 in 7.0 mi NE 11.5 mph - N/A   Mostly Cloudy
9:45 PM 57.2 °F 46.4 °F 67% 29.88 in 7.0 mi NE 12.7 mph - N/A   Mostly Cloudy
10:45 PM 55.4 °F 44.6 °F 67% 30.40 in 7.0 mi ENE 12.7 mph - N/A   Scattered Clouds
11:45 PM 53.6 °F 41.0 °F 62% 30.41 in 7.0 mi NE 10.4 mph - N/A   Scattered Clouds